Year,Month,Day,Hour,Minute,Value (Times are PST for temperature in C)
2019,08,11,00,00,14.80
2019,08,11,00,01,14.70
2019,08,11,00,02,14.60
2019,08,11,00,03,14.60
2019,08,11,00,04,14.70
2019,08,11,00,05,14.70
2019,08,11,00,06,14.70
2019,08,11,00,07,14.80
2019,08,11,00,08,14.90
2019,08,11,00,09,14.90
2019,08,11,00,10,15.00
2019,08,11,00,11,15.10
2019,08,11,00,12,15.10
2019,08,11,00,13,15.00
2019,08,11,00,14,15.00
2019,08,11,00,15,15.00
2019,08,11,00,16,15.00
2019,08,11,00,17,14.90
2019,08,11,00,18,14.90
2019,08,11,00,19,15.00
2019,08,11,00,20,15.10
2019,08,11,00,21,15.10
2019,08,11,00,22,15.10
2019,08,11,00,23,15.10
2019,08,11,00,24,15.00
2019,08,11,00,25,15.00
2019,08,11,00,26,15.00
2019,08,11,00,27,15.10
2019,08,11,00,28,15.10
2019,08,11,00,29,15.20
2019,08,11,00,30,15.10
2019,08,11,00,31,15.10
2019,08,11,00,32,15.00
2019,08,11,00,33,14.90
2019,08,11,00,34,14.90
2019,08,11,00,35,14.90
2019,08,11,00,36,14.90
2019,08,11,00,37,15.00
2019,08,11,00,38,15.00
2019,08,11,00,39,15.10
2019,08,11,00,40,15.10
2019,08,11,00,41,15.00
2019,08,11,00,42,14.90
2019,08,11,00,43,14.80
2019,08,11,00,44,14.80
2019,08,11,00,45,14.80
2019,08,11,00,46,14.80
2019,08,11,00,47,14.80
2019,08,11,00,48,14.80
2019,08,11,00,49,14.80
2019,08,11,00,50,15.00
2019,08,11,00,51,15.00
2019,08,11,00,52,15.00
2019,08,11,00,53,14.90
2019,08,11,00,54,14.90
2019,08,11,00,55,14.90
2019,08,11,00,56,15.00
2019,08,11,00,57,15.00
2019,08,11,00,58,14.90
2019,08,11,00,59,14.80
2019,08,11,01,00,14.80
2019,08,11,01,01,14.80
2019,08,11,01,02,14.70
2019,08,11,01,03,14.70
2019,08,11,01,04,14.70
2019,08,11,01,05,14.70
2019,08,11,01,06,14.60
2019,08,11,01,07,14.50
2019,08,11,01,08,14.60
2019,08,11,01,09,14.80
2019,08,11,01,10,15.00
2019,08,11,01,11,15.10
2019,08,11,01,12,15.20
2019,08,11,01,13,15.20
2019,08,11,01,14,15.20
2019,08,11,01,15,15.10
2019,08,11,01,16,15.10
2019,08,11,01,17,15.20
2019,08,11,01,18,15.10
2019,08,11,01,19,15.20
2019,08,11,01,20,15.40
2019,08,11,01,21,15.50
2019,08,11,01,22,15.40
2019,08,11,01,23,15.30
2019,08,11,01,24,15.20
2019,08,11,01,25,15.20
2019,08,11,01,26,15.20
2019,08,11,01,27,15.10
2019,08,11,01,28,15.20
2019,08,11,01,29,15.10
2019,08,11,01,30,15.10
2019,08,11,01,31,14.90
2019,08,11,01,32,15.00
2019,08,11,01,33,15.00
2019,08,11,01,34,14.90
2019,08,11,01,35,15.10
2019,08,11,01,36,15.20
2019,08,11,01,37,15.20
2019,08,11,01,38,15.20
2019,08,11,01,39,15.20
2019,08,11,01,40,15.10
2019,08,11,01,41,15.00
2019,08,11,01,42,14.90
2019,08,11,01,43,14.90
2019,08,11,01,44,14.90
2019,08,11,01,45,14.80
2019,08,11,01,46,14.80
2019,08,11,01,47,14.80
2019,08,11,01,48,14.80
2019,08,11,01,49,14.80
2019,08,11,01,50,14.90
2019,08,11,01,51,14.80
2019,08,11,01,52,14.80
2019,08,11,01,53,14.90
2019,08,11,01,54,14.90
2019,08,11,01,55,14.90
2019,08,11,01,56,14.90
2019,08,11,01,57,14.90
2019,08,11,01,58,14.90
2019,08,11,01,59,14.90
2019,08,11,02,00,14.90
2019,08,11,02,01,14.90
2019,08,11,02,02,14.90
2019,08,11,02,03,15.10
2019,08,11,02,04,15.10
2019,08,11,02,05,15.00
2019,08,11,02,06,14.90
2019,08,11,02,07,14.90
2019,08,11,02,08,14.90
2019,08,11,02,09,15.00
2019,08,11,02,10,15.10
2019,08,11,02,11,15.10
2019,08,11,02,12,15.10
2019,08,11,02,13,15.10
2019,08,11,02,14,15.20
2019,08,11,02,15,15.40
2019,08,11,02,16,15.30
2019,08,11,02,17,15.30
2019,08,11,02,18,15.40
2019,08,11,02,19,15.40
2019,08,11,02,20,15.30
2019,08,11,02,21,15.30
2019,08,11,02,22,15.20
2019,08,11,02,23,15.10
2019,08,11,02,24,15.10
2019,08,11,02,25,15.00
2019,08,11,02,26,15.00
2019,08,11,02,27,15.00
2019,08,11,02,28,14.90
2019,08,11,02,29,14.90
2019,08,11,02,30,14.80
2019,08,11,02,31,14.70
2019,08,11,02,32,14.60
2019,08,11,02,33,14.50
2019,08,11,02,34,14.50
2019,08,11,02,35,14.50
2019,08,11,02,36,14.60
2019,08,11,02,37,14.60
2019,08,11,02,38,14.80
2019,08,11,02,39,14.80
2019,08,11,02,40,14.90
2019,08,11,02,41,14.90
2019,08,11,02,42,14.90
2019,08,11,02,43,15.00
2019,08,11,02,44,15.10
2019,08,11,02,45,15.20
2019,08,11,02,46,15.20
2019,08,11,02,47,15.20
2019,08,11,02,48,15.10
2019,08,11,02,49,15.00
2019,08,11,02,50,14.90
2019,08,11,02,51,14.80
2019,08,11,02,52,14.70
2019,08,11,02,53,14.70
2019,08,11,02,54,14.80
2019,08,11,02,55,14.90
2019,08,11,02,56,14.80
2019,08,11,02,57,14.80
2019,08,11,02,58,14.80
2019,08,11,02,59,14.90
2019,08,11,03,00,14.90
2019,08,11,03,01,14.90
2019,08,11,03,02,15.00
2019,08,11,03,03,15.00
2019,08,11,03,04,15.00
2019,08,11,03,05,15.00
2019,08,11,03,06,15.00
2019,08,11,03,07,14.90
2019,08,11,03,08,14.90
2019,08,11,03,09,15.00
2019,08,11,03,10,14.90
2019,08,11,03,11,14.80
2019,08,11,03,12,14.80
2019,08,11,03,13,14.80
2019,08,11,03,14,14.80
2019,08,11,03,15,14.90
2019,08,11,03,16,14.90
2019,08,11,03,17,14.90
2019,08,11,03,18,14.90
2019,08,11,03,19,14.90
2019,08,11,03,20,14.90
2019,08,11,03,21,14.90
2019,08,11,03,22,14.90
2019,08,11,03,23,15.00
2019,08,11,03,24,15.10
2019,08,11,03,25,15.00
2019,08,11,03,26,15.00
2019,08,11,03,27,15.00
2019,08,11,03,28,15.00
2019,08,11,03,29,15.00
2019,08,11,03,30,15.00
2019,08,11,03,31,15.00
2019,08,11,03,32,15.00
2019,08,11,03,33,15.00
2019,08,11,03,34,15.10
2019,08,11,03,35,15.10
2019,08,11,03,36,15.00
2019,08,11,03,37,15.00
2019,08,11,03,38,15.10
2019,08,11,03,39,15.00
2019,08,11,03,40,14.80
2019,08,11,03,41,14.90
2019,08,11,03,42,14.80
2019,08,11,03,43,14.90
2019,08,11,03,44,14.90
2019,08,11,03,45,15.00
2019,08,11,03,46,15.10
2019,08,11,03,47,15.00
2019,08,11,03,48,15.10
2019,08,11,03,49,15.10
2019,08,11,03,50,15.10
2019,08,11,03,51,15.10
2019,08,11,03,52,15.30
2019,08,11,03,53,15.30
2019,08,11,03,54,15.30
2019,08,11,03,55,15.30
2019,08,11,03,56,15.30
2019,08,11,03,57,15.20
2019,08,11,03,58,15.20
2019,08,11,03,59,15.30
2019,08,11,04,00,15.10
2019,08,11,04,01,15.00
2019,08,11,04,02,15.10
2019,08,11,04,03,15.00
2019,08,11,04,04,15.00
2019,08,11,04,05,15.00
2019,08,11,04,06,15.00
2019,08,11,04,07,15.00
2019,08,11,04,08,15.10
2019,08,11,04,09,15.10
2019,08,11,04,10,15.00
2019,08,11,04,11,15.00
2019,08,11,04,12,15.10
2019,08,11,04,13,15.20
2019,08,11,04,14,15.30
2019,08,11,04,15,15.30
2019,08,11,04,16,15.30
2019,08,11,04,17,15.30
2019,08,11,04,18,15.20
2019,08,11,04,19,15.20
2019,08,11,04,20,15.20
2019,08,11,04,21,15.30
2019,08,11,04,22,15.20
2019,08,11,04,23,15.20
2019,08,11,04,24,15.20
2019,08,11,04,25,15.20
2019,08,11,04,26,15.20
2019,08,11,04,27,15.20
2019,08,11,04,28,15.10
2019,08,11,04,29,15.00
2019,08,11,04,30,14.90
2019,08,11,04,31,14.90
2019,08,11,04,32,14.90
2019,08,11,04,33,14.90
2019,08,11,04,34,14.80
2019,08,11,04,35,14.70
2019,08,11,04,36,14.70
2019,08,11,04,37,14.70
2019,08,11,04,38,14.60
2019,08,11,04,39,14.50
2019,08,11,04,40,14.50
2019,08,11,04,41,14.40
2019,08,11,04,42,14.50
2019,08,11,04,43,14.60
2019,08,11,04,44,14.70
2019,08,11,04,45,14.60
2019,08,11,04,46,14.60
2019,08,11,04,47,14.60
2019,08,11,04,48,14.60
2019,08,11,04,49,14.60
2019,08,11,04,50,14.80
2019,08,11,04,51,14.90
2019,08,11,04,52,14.80
2019,08,11,04,53,14.80
2019,08,11,04,54,14.90
2019,08,11,04,55,14.80
2019,08,11,04,56,14.80
2019,08,11,04,57,14.70
2019,08,11,04,58,14.60
2019,08,11,04,59,14.70
2019,08,11,05,00,14.70
2019,08,11,05,01,14.70
2019,08,11,05,02,14.70
2019,08,11,05,03,14.90
2019,08,11,05,04,14.90
2019,08,11,05,05,14.80
2019,08,11,05,06,14.90
2019,08,11,05,07,15.20
2019,08,11,05,08,15.10
2019,08,11,05,09,15.00
2019,08,11,05,10,15.00
2019,08,11,05,11,15.00
2019,08,11,05,12,15.00
2019,08,11,05,13,15.20
2019,08,11,05,14,15.10
2019,08,11,05,15,15.10
2019,08,11,05,16,15.10
2019,08,11,05,17,15.20
2019,08,11,05,18,15.10
2019,08,11,05,19,15.20
2019,08,11,05,20,15.30
2019,08,11,05,21,15.20
2019,08,11,05,22,15.20
2019,08,11,05,23,15.30
2019,08,11,05,24,15.40
2019,08,11,05,25,15.30
2019,08,11,05,26,15.30
2019,08,11,05,27,15.40
2019,08,11,05,28,15.50
2019,08,11,05,29,15.40
2019,08,11,05,30,15.40
2019,08,11,05,31,15.30
2019,08,11,05,32,15.30
2019,08,11,05,33,15.20
2019,08,11,05,34,15.30
2019,08,11,05,35,15.40
2019,08,11,05,36,15.30
2019,08,11,05,37,15.20
2019,08,11,05,38,15.20
2019,08,11,05,39,15.30
2019,08,11,05,40,15.50
2019,08,11,05,41,15.40
2019,08,11,05,42,15.20
2019,08,11,05,43,15.30
2019,08,11,05,44,15.30
2019,08,11,05,45,15.20
2019,08,11,05,46,15.10
2019,08,11,05,47,15.00
2019,08,11,05,48,15.00
2019,08,11,05,49,15.10
2019,08,11,05,50,15.30
2019,08,11,05,51,15.30
2019,08,11,05,52,15.40
2019,08,11,05,53,15.40
2019,08,11,05,54,15.20
2019,08,11,05,55,15.30
2019,08,11,05,56,15.70
2019,08,11,05,57,15.60
2019,08,11,05,58,15.50
2019,08,11,05,59,15.40
2019,08,11,06,00,15.50
2019,08,11,06,01,15.30
2019,08,11,06,02,15.20
2019,08,11,06,03,15.40
2019,08,11,06,04,15.50
2019,08,11,06,05,15.50
2019,08,11,06,06,15.40
2019,08,11,06,07,15.30
2019,08,11,06,08,15.40
2019,08,11,06,09,15.40
2019,08,11,06,10,15.30
2019,08,11,06,11,15.10
2019,08,11,06,12,15.00
2019,08,11,06,13,14.90
2019,08,11,06,14,14.80
2019,08,11,06,15,14.70
2019,08,11,06,16,14.80
2019,08,11,06,17,14.90
2019,08,11,06,18,15.00
2019,08,11,06,19,15.10
2019,08,11,06,20,15.00
2019,08,11,06,21,14.90
2019,08,11,06,22,14.90
2019,08,11,06,23,14.90
2019,08,11,06,24,15.10
2019,08,11,06,25,15.20
2019,08,11,06,26,15.30
2019,08,11,06,27,15.50
2019,08,11,06,28,15.60
2019,08,11,06,29,15.50
2019,08,11,06,30,15.40
2019,08,11,06,31,15.50
2019,08,11,06,32,15.50
2019,08,11,06,33,15.40
2019,08,11,06,34,15.30
2019,08,11,06,35,15.50
2019,08,11,06,36,15.60
2019,08,11,06,37,15.50
2019,08,11,06,38,15.50
2019,08,11,06,39,15.40
2019,08,11,06,40,15.50
2019,08,11,06,41,15.60
2019,08,11,06,42,15.50
2019,08,11,06,43,15.50
2019,08,11,06,44,15.60
2019,08,11,06,45,15.70
2019,08,11,06,46,15.70
2019,08,11,06,47,15.60
2019,08,11,06,48,15.50
2019,08,11,06,49,15.50
2019,08,11,06,50,15.60
2019,08,11,06,51,15.70
2019,08,11,06,52,15.60
2019,08,11,06,53,15.50
2019,08,11,06,54,15.60
2019,08,11,06,55,15.70
2019,08,11,06,56,15.70
2019,08,11,06,57,15.70
2019,08,11,06,58,15.70
2019,08,11,06,59,15.80
2019,08,11,07,00,15.80
2019,08,11,07,01,15.80
2019,08,11,07,02,15.70
2019,08,11,07,03,15.80
2019,08,11,07,04,15.80
2019,08,11,07,05,15.80
2019,08,11,07,06,15.80
2019,08,11,07,07,15.70
2019,08,11,07,08,15.60
2019,08,11,07,09,15.60
2019,08,11,07,10,15.50
2019,08,11,07,11,15.60
2019,08,11,07,12,15.60
2019,08,11,07,13,15.60
2019,08,11,07,14,15.60
2019,08,11,07,15,15.60
2019,08,11,07,16,15.70
2019,08,11,07,17,15.70
2019,08,11,07,18,15.70
2019,08,11,07,19,15.80
2019,08,11,07,20,15.80
2019,08,11,07,21,15.80
2019,08,11,07,22,15.80
2019,08,11,07,23,15.80
2019,08,11,07,24,15.80
2019,08,11,07,25,15.80
2019,08,11,07,26,15.80
2019,08,11,07,27,15.80
2019,08,11,07,28,15.90
2019,08,11,07,29,15.90
2019,08,11,07,30,15.90
2019,08,11,07,31,15.90
2019,08,11,07,32,15.80
2019,08,11,07,33,15.80
2019,08,11,07,34,15.70
2019,08,11,07,35,15.70
2019,08,11,07,36,15.60
2019,08,11,07,37,15.60
2019,08,11,07,38,15.60
2019,08,11,07,39,15.50
2019,08,11,07,40,15.50
2019,08,11,07,41,15.50
2019,08,11,07,42,15.50
2019,08,11,07,43,15.50
2019,08,11,07,44,15.50
2019,08,11,07,45,15.50
2019,08,11,07,46,15.60
2019,08,11,07,47,15.60
2019,08,11,07,48,15.70
2019,08,11,07,49,15.70
2019,08,11,07,50,15.70
2019,08,11,07,51,15.60
2019,08,11,07,52,15.60
2019,08,11,07,53,15.70
2019,08,11,07,54,15.70
2019,08,11,07,55,15.70
2019,08,11,07,56,15.70
2019,08,11,07,57,15.60
2019,08,11,07,58,15.60
2019,08,11,07,59,15.60
2019,08,11,08,00,15.60
2019,08,11,08,01,15.70
2019,08,11,08,02,15.60
2019,08,11,08,03,15.60
2019,08,11,08,04,15.60
2019,08,11,08,05,15.70
2019,08,11,08,06,15.70
2019,08,11,08,07,15.70
2019,08,11,08,08,15.80
2019,08,11,08,09,15.90
2019,08,11,08,10,16.00
2019,08,11,08,11,16.00
2019,08,11,08,12,16.00
2019,08,11,08,13,16.00
2019,08,11,08,14,16.00
2019,08,11,08,15,16.10
2019,08,11,08,16,16.10
2019,08,11,08,17,16.10
2019,08,11,08,18,16.10
2019,08,11,08,19,16.10
2019,08,11,08,20,16.10
2019,08,11,08,21,16.10
2019,08,11,08,22,16.10
2019,08,11,08,23,16.00
2019,08,11,08,24,16.00
2019,08,11,08,25,15.90
2019,08,11,08,26,16.00
2019,08,11,08,27,16.00
2019,08,11,08,28,16.00
2019,08,11,08,29,16.00
2019,08,11,08,30,16.10
2019,08,11,08,31,16.00
2019,08,11,08,32,16.10
2019,08,11,08,33,16.10
2019,08,11,08,34,16.10
2019,08,11,08,35,16.10
2019,08,11,08,36,16.10
2019,08,11,08,37,16.20
2019,08,11,08,38,16.20
2019,08,11,08,39,16.20
2019,08,11,08,40,16.30
2019,08,11,08,41,16.30
2019,08,11,08,42,16.30
2019,08,11,08,43,16.30
2019,08,11,08,44,16.30
2019,08,11,08,45,16.30
2019,08,11,08,46,16.30
2019,08,11,08,47,16.30
2019,08,11,08,48,16.40
2019,08,11,08,49,16.40
2019,08,11,08,50,16.50
2019,08,11,08,51,16.50
2019,08,11,08,52,16.60
2019,08,11,08,53,16.60
2019,08,11,08,54,16.50
2019,08,11,08,55,16.50
2019,08,11,08,56,16.60
2019,08,11,08,57,16.70
2019,08,11,08,58,16.70
2019,08,11,08,59,16.70
2019,08,11,09,00,16.70
2019,08,11,09,01,16.70
2019,08,11,09,02,16.70
2019,08,11,09,03,16.70
2019,08,11,09,04,16.60
2019,08,11,09,05,16.60
2019,08,11,09,06,16.60
2019,08,11,09,07,16.60
2019,08,11,09,08,16.60
2019,08,11,09,09,16.60
2019,08,11,09,10,16.60
2019,08,11,09,11,16.50
2019,08,11,09,12,16.00
2019,08,11,09,13,15.80
2019,08,11,09,14,15.70
2019,08,11,09,15,15.80
2019,08,11,09,16,15.80
2019,08,11,09,17,15.80
2019,08,11,09,18,15.80
2019,08,11,09,19,15.80
2019,08,11,09,20,15.80
2019,08,11,09,21,15.90
2019,08,11,09,22,15.80
2019,08,11,09,23,15.70
2019,08,11,09,24,15.50
2019,08,11,09,25,15.50
2019,08,11,09,26,15.70
2019,08,11,09,27,15.80
2019,08,11,09,28,15.90
2019,08,11,09,29,16.00
2019,08,11,09,30,16.00
2019,08,11,09,31,16.00
2019,08,11,09,32,16.00
2019,08,11,09,33,16.00
2019,08,11,09,34,16.00
2019,08,11,09,35,16.00
2019,08,11,09,36,16.10
2019,08,11,09,37,16.20
2019,08,11,09,38,16.30
2019,08,11,09,39,16.40
2019,08,11,09,40,16.50
2019,08,11,09,41,16.70
2019,08,11,09,42,16.80
2019,08,11,09,43,16.80
2019,08,11,09,44,16.80
2019,08,11,09,45,16.80
2019,08,11,09,46,16.80
2019,08,11,09,47,16.90
2019,08,11,09,48,16.90
2019,08,11,09,49,16.80
2019,08,11,09,50,16.90
2019,08,11,09,51,17.00
2019,08,11,09,52,17.10
2019,08,11,09,53,17.20
2019,08,11,09,54,17.20
2019,08,11,09,55,17.20
2019,08,11,09,56,17.20
2019,08,11,09,57,17.20
2019,08,11,09,58,17.20
2019,08,11,09,59,17.20
2019,08,11,10,00,17.20
2019,08,11,10,01,17.20
2019,08,11,10,02,17.20
2019,08,11,10,03,17.20
2019,08,11,10,04,17.20
2019,08,11,10,05,17.20
2019,08,11,10,06,17.10
2019,08,11,10,07,17.10
2019,08,11,10,08,17.10
2019,08,11,10,09,17.10
2019,08,11,10,10,16.90
2019,08,11,10,11,16.80
2019,08,11,10,12,16.70
2019,08,11,10,13,16.60
2019,08,11,10,14,16.70
2019,08,11,10,15,16.60
2019,08,11,10,16,16.60
2019,08,11,10,17,16.60
2019,08,11,10,18,16.70
2019,08,11,10,19,16.70
2019,08,11,10,20,16.80
2019,08,11,10,21,16.80
2019,08,11,10,22,16.80
2019,08,11,10,23,16.80
2019,08,11,10,24,16.80
2019,08,11,10,25,16.70
2019,08,11,10,26,16.60
2019,08,11,10,27,16.60
2019,08,11,10,28,16.50
2019,08,11,10,29,16.40
2019,08,11,10,30,16.20
2019,08,11,10,31,16.10
2019,08,11,10,32,16.10
2019,08,11,10,33,16.00
2019,08,11,10,34,16.00
2019,08,11,10,35,16.00
2019,08,11,10,36,15.90
2019,08,11,10,37,15.80
2019,08,11,10,38,15.60
2019,08,11,10,39,15.50
2019,08,11,10,40,15.60
2019,08,11,10,41,15.70
2019,08,11,10,42,15.80
2019,08,11,10,43,15.70
2019,08,11,10,44,15.70
2019,08,11,10,45,15.70
2019,08,11,10,46,15.80
2019,08,11,10,47,15.80
2019,08,11,10,48,15.70
2019,08,11,10,49,15.70
2019,08,11,10,50,15.80
2019,08,11,10,51,15.80
2019,08,11,10,52,16.00
2019,08,11,10,53,16.10
2019,08,11,10,54,16.20
2019,08,11,10,55,16.30
2019,08,11,10,56,16.20
2019,08,11,10,57,16.00
2019,08,11,10,58,15.90
2019,08,11,10,59,15.40
2019,08,11,11,00,15.10
2019,08,11,11,01,15.00
2019,08,11,11,02,14.90
2019,08,11,11,03,14.80
2019,08,11,11,04,14.60
2019,08,11,11,05,14.60
2019,08,11,11,06,14.60
2019,08,11,11,07,14.60
2019,08,11,11,08,14.70
2019,08,11,11,09,14.80
2019,08,11,11,10,14.80
2019,08,11,11,11,14.70
2019,08,11,11,12,14.70
2019,08,11,11,13,14.60
2019,08,11,11,14,14.70
2019,08,11,11,15,14.60
2019,08,11,11,16,14.50
2019,08,11,11,17,14.60
2019,08,11,11,18,14.60
2019,08,11,11,19,14.60
2019,08,11,11,20,14.60
2019,08,11,11,21,14.60
2019,08,11,11,22,14.60
2019,08,11,11,23,14.70
2019,08,11,11,24,14.70
2019,08,11,11,25,14.60
2019,08,11,11,26,14.60
2019,08,11,11,27,14.50
2019,08,11,11,28,14.50
2019,08,11,11,29,14.60
2019,08,11,11,30,14.60
2019,08,11,11,31,14.60
2019,08,11,11,32,14.60
2019,08,11,11,33,14.60
2019,08,11,11,34,14.60
2019,08,11,11,35,14.60
2019,08,11,11,36,14.60
2019,08,11,11,37,14.50
2019,08,11,11,38,14.60
2019,08,11,11,39,14.60
2019,08,11,11,40,14.60
2019,08,11,11,41,14.60
2019,08,11,11,42,14.50
2019,08,11,11,43,14.50
2019,08,11,11,44,14.50
2019,08,11,11,45,14.50
2019,08,11,11,46,14.40
2019,08,11,11,47,14.40
2019,08,11,11,48,14.40
2019,08,11,11,49,14.40
2019,08,11,11,50,14.50
2019,08,11,11,51,14.50
2019,08,11,11,52,14.50
2019,08,11,11,53,14.50
2019,08,11,11,54,14.50
2019,08,11,11,55,14.40
2019,08,11,11,56,14.30
2019,08,11,11,57,14.10
2019,08,11,11,58,13.90
2019,08,11,11,59,13.80
2019,08,11,12,00,13.70
2019,08,11,12,01,13.70
2019,08,11,12,02,13.70
2019,08,11,12,03,13.70
2019,08,11,12,04,13.70
2019,08,11,12,05,13.80
2019,08,11,12,06,13.80
2019,08,11,12,07,13.90
2019,08,11,12,08,14.00
2019,08,11,12,09,14.10
2019,08,11,12,10,14.20
2019,08,11,12,11,14.40
2019,08,11,12,12,14.60
2019,08,11,12,13,14.70
2019,08,11,12,14,14.70
2019,08,11,12,15,14.60
2019,08,11,12,16,14.50
2019,08,11,12,17,14.60
2019,08,11,12,18,14.60
2019,08,11,12,19,14.70
2019,08,11,12,20,14.70
2019,08,11,12,21,14.60
2019,08,11,12,22,14.50
2019,08,11,12,23,14.50
2019,08,11,12,24,14.50
2019,08,11,12,25,14.50
2019,08,11,12,26,14.60
2019,08,11,12,27,14.40
2019,08,11,12,28,14.40
2019,08,11,12,29,14.40
2019,08,11,12,30,14.40
2019,08,11,12,31,14.40
2019,08,11,12,32,14.40
2019,08,11,12,33,14.40
2019,08,11,12,34,14.40
2019,08,11,12,35,14.50
2019,08,11,12,36,14.80
2019,08,11,12,37,14.90
2019,08,11,12,38,15.00
2019,08,11,12,39,15.10
2019,08,11,12,40,15.10
2019,08,11,12,41,15.20
2019,08,11,12,42,15.20
2019,08,11,12,43,15.20
2019,08,11,12,44,15.20
2019,08,11,12,45,15.30
2019,08,11,12,46,15.30
2019,08,11,12,47,15.30
2019,08,11,12,48,15.30
2019,08,11,12,49,15.40
2019,08,11,12,50,15.40
2019,08,11,12,51,15.40
2019,08,11,12,52,15.40
2019,08,11,12,53,15.40
2019,08,11,12,54,15.40
2019,08,11,12,55,15.40
2019,08,11,12,56,15.40
2019,08,11,12,57,15.40
2019,08,11,12,58,15.40
2019,08,11,12,59,15.40
2019,08,11,13,00,15.30
2019,08,11,13,01,15.30
2019,08,11,13,02,15.30
2019,08,11,13,03,15.20
2019,08,11,13,04,15.20
2019,08,11,13,05,15.20
2019,08,11,13,06,15.10
2019,08,11,13,07,15.00
2019,08,11,13,08,14.80
2019,08,11,13,09,14.80
2019,08,11,13,10,14.70
2019,08,11,13,11,14.70
2019,08,11,13,12,14.60
2019,08,11,13,13,14.50
2019,08,11,13,14,14.40
2019,08,11,13,15,14.40
2019,08,11,13,16,14.40
2019,08,11,13,17,14.40
2019,08,11,13,18,14.40
2019,08,11,13,19,14.40
2019,08,11,13,20,14.40
2019,08,11,13,21,14.40
2019,08,11,13,22,14.40
2019,08,11,13,23,14.30
2019,08,11,13,24,14.30
2019,08,11,13,25,14.30
2019,08,11,13,26,14.30
2019,08,11,13,27,14.40
2019,08,11,13,28,14.40
2019,08,11,13,29,14.60
2019,08,11,13,30,14.60
2019,08,11,13,31,14.60
2019,08,11,13,32,14.60
2019,08,11,13,33,14.70
2019,08,11,13,34,15.00
2019,08,11,13,35,15.30
2019,08,11,13,36,15.60
2019,08,11,13,37,15.80
2019,08,11,13,38,15.90
2019,08,11,13,39,16.10
2019,08,11,13,40,16.10
2019,08,11,13,41,16.20
2019,08,11,13,42,16.20
2019,08,11,13,43,16.20
2019,08,11,13,44,16.20
2019,08,11,13,45,16.20
2019,08,11,13,46,16.20
2019,08,11,13,47,16.20
2019,08,11,13,48,16.10
2019,08,11,13,49,16.00
2019,08,11,13,50,15.80
2019,08,11,13,51,15.80
2019,08,11,13,52,15.80
2019,08,11,13,53,15.80
2019,08,11,13,54,16.00
2019,08,11,13,55,16.10
2019,08,11,13,56,16.20
2019,08,11,13,57,16.30
2019,08,11,13,58,16.30
2019,08,11,13,59,16.30
2019,08,11,14,00,16.30
2019,08,11,14,01,16.20
2019,08,11,14,02,16.20
2019,08,11,14,03,16.10
2019,08,11,14,04,16.00
2019,08,11,14,05,16.00
2019,08,11,14,06,15.80
2019,08,11,14,07,15.70
2019,08,11,14,08,15.70
2019,08,11,14,09,15.60
2019,08,11,14,10,15.50
2019,08,11,14,11,15.40
2019,08,11,14,12,15.30
2019,08,11,14,13,15.20
2019,08,11,14,14,15.30
2019,08,11,14,15,15.50
2019,08,11,14,16,15.70
2019,08,11,14,17,16.00
2019,08,11,14,18,16.20
2019,08,11,14,19,16.30
2019,08,11,14,20,16.50
2019,08,11,14,21,16.60
2019,08,11,14,22,16.60
2019,08,11,14,23,16.70
2019,08,11,14,24,16.70
2019,08,11,14,25,16.70
2019,08,11,14,26,16.90
2019,08,11,14,27,17.00
2019,08,11,14,28,17.10
2019,08,11,14,29,17.10
2019,08,11,14,30,17.20
2019,08,11,14,31,17.00
2019,08,11,14,32,17.00
2019,08,11,14,33,17.00
2019,08,11,14,34,16.90
2019,08,11,14,35,17.00
2019,08,11,14,36,17.00
2019,08,11,14,37,17.00
2019,08,11,14,38,17.00
2019,08,11,14,39,17.10
2019,08,11,14,40,17.20
2019,08,11,14,41,17.30
2019,08,11,14,42,17.40
2019,08,11,14,43,17.40
2019,08,11,14,44,17.50
2019,08,11,14,45,17.40
2019,08,11,14,46,17.40
2019,08,11,14,47,17.30
2019,08,11,14,48,17.20
2019,08,11,14,49,17.20
2019,08,11,14,50,17.20
2019,08,11,14,51,17.10
2019,08,11,14,52,17.20
2019,08,11,14,53,17.20
2019,08,11,14,54,17.20
2019,08,11,14,55,17.30
2019,08,11,14,56,17.30
2019,08,11,14,57,17.20
2019,08,11,14,58,17.10
2019,08,11,14,59,17.00
2019,08,11,15,00,17.10
2019,08,11,15,01,17.20
2019,08,11,15,02,17.30
2019,08,11,15,03,17.40
2019,08,11,15,04,17.60
2019,08,11,15,05,17.60
2019,08,11,15,06,17.60
2019,08,11,15,07,17.60
2019,08,11,15,08,17.70
2019,08,11,15,09,17.70
2019,08,11,15,10,17.70
2019,08,11,15,11,17.70
2019,08,11,15,12,17.70
2019,08,11,15,13,17.80
2019,08,11,15,14,17.70
2019,08,11,15,15,17.70
2019,08,11,15,16,17.70
2019,08,11,15,17,17.70
2019,08,11,15,18,17.80
2019,08,11,15,19,17.90
2019,08,11,15,20,17.90
2019,08,11,15,21,18.00
2019,08,11,15,22,18.00
2019,08,11,15,23,18.10
2019,08,11,15,24,18.10
2019,08,11,15,25,18.10
2019,08,11,15,26,18.00
2019,08,11,15,27,18.00
2019,08,11,15,28,17.90
2019,08,11,15,29,17.90
2019,08,11,15,30,18.00
2019,08,11,15,31,18.10
2019,08,11,15,32,18.10
2019,08,11,15,33,18.10
2019,08,11,15,34,18.00
2019,08,11,15,35,18.00
2019,08,11,15,36,18.00
2019,08,11,15,37,17.90
2019,08,11,15,38,17.80
2019,08,11,15,39,17.70
2019,08,11,15,40,17.60
2019,08,11,15,41,17.50
2019,08,11,15,42,17.40
2019,08,11,15,43,17.40
2019,08,11,15,44,17.30
2019,08,11,15,45,17.20
2019,08,11,15,46,17.10
2019,08,11,15,47,16.90
2019,08,11,15,48,16.70
2019,08,11,15,49,16.60
2019,08,11,15,50,16.60
2019,08,11,15,51,16.50
2019,08,11,15,52,16.40
2019,08,11,15,53,16.40
2019,08,11,15,54,16.50
2019,08,11,15,55,16.70
2019,08,11,15,56,16.80
2019,08,11,15,57,16.80
2019,08,11,15,58,17.00
2019,08,11,15,59,17.20
2019,08,11,16,00,17.20
2019,08,11,16,01,17.00
2019,08,11,16,02,17.00
2019,08,11,16,03,17.00
2019,08,11,16,04,17.00
2019,08,11,16,05,17.00
2019,08,11,16,06,16.90
2019,08,11,16,07,16.80
2019,08,11,16,08,16.60
2019,08,11,16,09,16.40
2019,08,11,16,10,16.30
2019,08,11,16,11,16.20
2019,08,11,16,12,16.20
2019,08,11,16,13,16.20
2019,08,11,16,14,16.10
2019,08,11,16,15,15.90
2019,08,11,16,16,15.70
2019,08,11,16,17,15.60
2019,08,11,16,18,15.50
2019,08,11,16,19,15.60
2019,08,11,16,20,15.80
2019,08,11,16,21,15.90
2019,08,11,16,22,15.90
2019,08,11,16,23,15.90
2019,08,11,16,24,15.80
2019,08,11,16,25,15.80
2019,08,11,16,26,15.90
2019,08,11,16,27,16.00
2019,08,11,16,28,16.40
2019,08,11,16,29,16.80
2019,08,11,16,30,17.00
2019,08,11,16,31,17.20
2019,08,11,16,32,17.30
2019,08,11,16,33,17.40
2019,08,11,16,34,17.40
2019,08,11,16,35,17.20
2019,08,11,16,36,17.10
2019,08,11,16,37,16.80
2019,08,11,16,38,16.50
2019,08,11,16,39,16.30
2019,08,11,16,40,16.20
2019,08,11,16,41,16.20
2019,08,11,16,42,16.20
2019,08,11,16,43,16.10
2019,08,11,16,44,16.10
2019,08,11,16,45,16.00
2019,08,11,16,46,15.90
2019,08,11,16,47,15.80
2019,08,11,16,48,15.90
2019,08,11,16,49,15.80
2019,08,11,16,50,15.70
2019,08,11,16,51,15.60
2019,08,11,16,52,15.30
2019,08,11,16,53,15.20
2019,08,11,16,54,15.30
2019,08,11,16,55,15.60
2019,08,11,16,56,15.90
2019,08,11,16,57,16.20
2019,08,11,16,58,16.40
2019,08,11,16,59,16.40
2019,08,11,17,00,16.50
2019,08,11,17,01,16.50
2019,08,11,17,02,16.50
2019,08,11,17,03,16.60
2019,08,11,17,04,16.70
2019,08,11,17,05,16.80
2019,08,11,17,06,16.90
2019,08,11,17,07,17.00
2019,08,11,17,08,17.10
2019,08,11,17,09,17.30
2019,08,11,17,10,17.40
2019,08,11,17,11,17.50
2019,08,11,17,12,17.20
2019,08,11,17,13,16.80
2019,08,11,17,14,16.70
2019,08,11,17,15,16.90
2019,08,11,17,16,17.30
2019,08,11,17,17,17.80
2019,08,11,17,18,17.90
2019,08,11,17,19,17.90